Regional Weather Roundup
Issued by NWS Sioux Falls, SD

Home | Current Version | Previous Version | Text Only | Print | Product List | Glossary On
Versions: 1 2 3 4 5 6 7 8 9 10 11 12 13 14 15 16 17 18 19 20 21 22 23 24 25 26 27 28 29 30 31 32 33 34 35 36 37 38 39 40 41 42 43 44 45 46 47 48 49 50
181
ASUS43 KFSD 290002
RWRFSD

WEATHER ROUNDUP FOR SE SOUTH DAKOTA/SW MINNESOTA/NW IOWA
NATIONAL WEATHER SERVICE SIOUX FALLS SD
700 PM CDT WED JUN 28 2017

NOTE: "FAIR" INDICATES FEW OR NO CLOUDS BELOW 12,000 FEET WITH NO
SIGNIFICANT WEATHER AND OR OBSTRUCTIONS TO VISIBILITY.


SDZ038>040-050-052>070-290100-
SOUTHEAST SOUTH DAKOTA

CITY           SKY/WX    TMP DP  RH WIND       PRES   REMARKS
BROOKINGS      FAIR      81  58  45 NW12      29.63R
CHAMBERLAIN    SUNNY     86  49  27 N10       29.67S
6HR MIN TEMP:  84; 6HR MAX TEMP:  87;

HURON          SUNNY     86  41  20 NW17      29.63R
6HR MIN TEMP:  80; 6HR MAX TEMP:  88;

MADISON        FAIR      81  59  47 NW12G17   29.64S
MITCHELL       SUNNY     87  51  28 NW12      29.63S
6HR MIN TEMP:  85; 6HR MAX TEMP:  90;

SIOUX FALLS    FAIR      84  63  49 NW9       29.62S
6HR MIN TEMP:  79; 6HR MAX TEMP:  86;

WINNER         FAIR      89  51  27 N8        29.70R
YANKTON        FAIR      85  61  44 NW9       29.64S
$$

MNZ071-072-080-081-089-090-097-098-290100-
SOUTHWEST MINNESOTA

CITY           SKY/WX    TMP DP  RH WIND       PRES   REMARKS
FAIRMONT       FAIR      82  66  58 W15G22    29.57S
JACKSON        FAIR      81  63  54 W16       29.59F
MARSHALL       FAIR      81  63  54 NW16G22   29.59R
6HR MIN TEMP:  78; 6HR MAX TEMP:  84;

MONTEVIDEO     FAIR      81  63  54 N18G30    29.58R
PIPESTONE      FAIR      82  57  42 NW14      29.64R
REDWOOD FALLS  FAIR      81  61  50 NW16G22   29.56R
TRACY          PTSUNNY   80  66  62 NW10      29.60R
WINDOM         FAIR      82  64  54 W14G24    29.58F
WORTHINGTON    FAIR      81  66  60 W13       29.61F
$$

IAZ001>003-012>014-020>022-031-032-NEZ013-014-SDZ071-290100-
NORTHWEST IOWA

CITY           SKY/WX    TMP DP  RH WIND       PRES   REMARKS
CHEROKEE       FAIR      84  62  46 W10       29.62R
DENISON        FAIR      86  66  51 NW9G16    29.65S
ESTHERVILLE    FAIR      81  65  58 W14G23    29.58F
LE MARS        FAIR      84  63  48 NW9G18    29.63S
ORANGE CITY    FAIR      82  64  54 W10       29.63S
SHELDON        FAIR      84  63  48 W16       29.60F
SIOUX CITY     FAIR      86  66  51 NW10      29.62S
6HR MIN TEMP:  83; 6HR MAX TEMP:  90;

SPENCER        FAIR      83  64  52 W15G23    29.61S
6HR MIN TEMP:  80; 6HR MAX TEMP:  86;

STORM LAKE     FAIR      82  64  54 W12       29.64R
$$

ABBREVIATIONS USED IN REMARKS
   TC - TEMPERATURE IN CELSIUS
  WCI - WIND CHILL INDEX
   HX - HEAT INDEX
  VSB - VISIBILITY





USA.gov is the U.S. government's official web portal to all federal, state and local government web resources and services.